CAPE
8 1 22 4 19 31 35 17 15 4 1 0 0 0 0 0 0 0 0 0 0 0 0 0 0 0 0 0 0 0 0 0 0 0 0 0 0 0
6 0 1 0 1 15 4 16 30 24 5 0 0 0 0 0 0 0 0 0 0 0 0 0 0 0 0 0 0 0 0 0 0 0 0 0 0 0
0 0 0 0 10 9 9 16 19 17 10 0 0 0 0 0 0 0 0 0 0 0 0 0 0 0 0 0 0 0 0 0 0 0 0 0 0 0
0 0 0 0 0 0 0 4 10 0 4 4 0 0 0 0 0 0 0 0 0 0 0 0 0 0 0 0 0 0 0 0 0 0 0 0 0 0
0 0 0 0 0 0 0 0 0 0 2 17 0 3 9 0 0 0 0 0 0 0 0 0 0 0 0 0 0 0 0 0 0 0 0 0 0 0
0 0 0 0 0 0 1 1 0 1 5 20 32 16 2 0 0 0 1 0 1 1 0 0 0 0 0 0 0 0 0 0 0 0 0 0 0 0
0 0 0 0 1 2 4 7 12 20 27 46 50 13 3 0 0 0 1 1 1 0 0 1 1 1 0 0 0 0 1 0 0 0 0 0 0 0
0 0 0 0 0 0 0 0 6 16 25 44 27 9 1 0 1 0 1 0 1 1 0 1 0 1 0 0 0 2 0 0 0 0 0 0 0 0
0 0 0 0 0 0 0 0 0 0 0 0 8 3 1 0 0 0 0 0 0 1 0 1 0 0 2 2 0 0 0 0 0 0 0 0 0 0
1 9 18 25 15 21 0 0 2 10 5 3 2 3 1 0 0 0 0 1 2 1 0 0 0 0 0 1 0 0 0 0 0 0 0 0 0 0
0 0 0 0 0 0 0 0 19 15 5 5 3 1 1 2 2 0 1 0 1 0 0 0 0 0 0 0 0 0 0 0 0 0 0 0 0 0
10 7 5 3 2 1 0 9 11 7 3 2 2 1 0 0 1 0 1 0 0 0 0 0 0 0 0 0 0 0 0 0 0 0 0 0 0 0
11 9 4 2 3 3 3 4 4 1 2 1 1 1 2 2 1 0 0 0 0 0 0 0 0 0 0 0 0 0 0 0 0 0 0 0 0 0
9 5 4 6 6 2 2 2 1 1 1 1 1 2 0 0 0 0 0 0 0 0 0 0 0 0 0 0 0 0 0 0 0 0 0 0 0 0
1 1 1 2 1 0 0 0 0 0 1 0 0 0 0 0 0 0 0 0 0 0 0 0 0 0 0 0 0 0 0 0 0 0 0 0 0 0
0 1 1 0 0 0 0 0 0 0 0 0 0 0 0 0 0 0 0 0 0 0 0 0 0 0 0 0 0 0 0 0 0 0 0 0 0 0
0 0 0 0 0 0 0 0 0 0 0 0 0 0 0 0 0 0 0 0 0 0 0 0 0 0 0 0 0 0 0 0 0 0 0 0 0 0
0 0 0 0 0 0 0 0 0 0 0 0 0 0 0 0 0 0 0 0 0 0 0 0 0 0 0 0 0 0 0 0 0 0 0 0 0 0
0 0 0 0 0 0 0 0 0 0 0 0 0 0 0 0 0 0 0 0 0 0 0 0 0 0 0 0 0 0 0 0 0 0 0 0 0 0
0 0 0 0 0 0 0 0 0 0 0 0 0 0 0 0 0 0 0 0 0 0 0 0 0 0 0 0 0 0 0 0 0 0 0 0 0 0
0 0 0 0 0 0 0 0 0 0 0 0 0 0 0 0 0 0 0 0 0 0 0 0 0 0 0 0 0 0 0 0 0 0 0 0 0 0
0 0 0 0 0 0 0 0 0 0 0 0 0 0 0 0 0 0 0 0 0 0 0 0 0 0 0 0 0 0 0 0 0 0 0 0 0 0
0 0 0 0 0 0 0 0 0 0 0 0 0 0 0 0 0 0 0 0 0 0 0 0 0 0 0 0 0 0 0 0 0 0 0 0 0 0
CIN
-74 -39 -42 -31 -31 -42 -46 -38 -28 -25 -31 0 0 0 0 0 0 0 0 0 0 0 0 0 0 0 0 0 0 0 0 0 0 0 0 0 0 0
-73 -25 -37 0 -61 -53 -40 -44 -53 -36 -30 0 0 0 0 0 0 0 0 0 0 0 0 0 0 0 0 0 0 0 0 0 0 0 0 0 0 0
0 0 0 -36 -67 -72 -65 -57 -60 -59 -34 0 0 0 0 0 0 0 0 0 0 0 0 0 0 0 0 0 0 0 0 0 0 0 0 0 0 0
0 0 0 0 -4 0 -4 -74 -64 -4 -56 -38 0 0 0 0 0 0 0 0 0 0 0 0 0 0 0 0 0 0 0 0 0 0 0 0 0 0
0 0 0 0 0 0 0 0 0 0 -58 -47 -8 -32 -67 0 0 0 0 0 0 0 0 0 0 0 0 0 0 0 0 0 0 0 0 0 0 0
0 0 0 0 0 0 -79 -68 0 -27 -46 -18 -12 -29 -14 0 0 0 0 0 0 0 0 0 0 0 0 0 0 0 0 0 0 0 0 0 0 0
0 0 0 0 -208 -189 -138 -127 -92 -53 -18 -2 0 -12 -9 0 0 0 0 0 0 0 0 0 0 0 0 0 0 0 0 0 0 0 0 0 0 0
0 0 0 0 0 0 0 0 -40 -32 -13 -4 -5 -17 -15 0 0 0 0 0 0 0 0 0 0 0 0 0 0 0 0 0 0 0 0 0 0 0
0 0 0 0 0 -44 0 0 0 0 0 0 -52 -39 0 0 0 0 0 0 0 0 0 0 0 0 0 0 0 0 0 0 0 0 0 0 0 0
-85 -155 -132 -132 -160 -129 0 0 0 0 0 0 0 0 0 0 0 0 0 0 0 0 0 0 0 0 0 0 0 0 0 0 0 0 0 0 0 0
0 0 0 0 0 0 0 0 0 0 0 0 0 0 0 0 0 0 0 0 0 0 0 0 0 0 0 0 0 0 0 0 0 0 0 0 0 0
0 0 0 0 0 0 0 0 0 0 0 0 0 0 0 0 0 0 0 0 0 0 0 0 0 0 0 0 0 0 0 0 0 0 0 0 0 0
0 0 0 0 0 0 0 0 0 0 0 0 0 0 0 0 0 0 0 0 0 0 0 0 0 0 0 0 0 0 0 0 0 0 0 0 0 0
0 0 0 0 0 0 0 0 0 0 0 0 0 0 0 0 0 0 0 0 0 0 0 0 0 0 0 0 0 0 0 0 0 0 0 0 0 0
0 0 0 0 0 0 0 0 0 0 0 0 0 0 0 0 0 0 0 0 0 0 0 0 0 0 0 0 0 0 0 0 0 0 0 0 0 0
0 0 0 0 0 0 0 0 0 0 0 0 0 0 0 0 0 0 0 0 0 0 0 0 0 0 0 0 0 0 0 0 0 0 0 0 0 0
0 0 0 0 0 0 0 0 0 0 0 0 0 0 0 0 0 0 0 0 0 0 0 0 0 0 0 0 0 0 0 0 0 0 0 0 0 0
0 0 0 0 0 0 0 0 0 0 0 0 0 0 0 0 0 0 0 0 0 0 0 0 0 0 0 0 0 0 0 0 0 0 0 0 0 0
0 0 0 0 0 0 0 0 0 0 0 0 0 0 0 0 0 0 0 0 0 0 0 0 0 0 0 0 0 0 0 0 0 0 0 0 0 0
0 0 0 0 0 0 0 0 0 0 0 0 0 0 0 0 0 0 0 0 0 0 0 0 0 0 0 0 0 0 0 0 0 0 0 0 0 0
0 0 0 0 0 0 0 0 0 0 0 0 0 0 0 0 0 0 0 0 0 0 0 0 0 0 0 0 0 0 0 -1 0 0 0 0 0 0
0 0 0 0 0 0 0 0 0 0 0 0 0 0 0 0 0 0 0 0 0 0 0 0 0 0 0 0 0 0 0 0 0 0 0 0 0 0
0 0 0 0 0 0 0 0 0 0 0 0 0 0 0 0 0 0 0 0 0 0 0 0 0 0 0 0 0 0 0 0 0 0 0 0 -0 -0
Wind_Speed
19 29 33 32 32 31 22 21 22 28 29 32 28 23 23 26 25 25 26 25 25 26 29 30 29 28 27 27 27 26 25 25 25 25 26 27 28 25
17 21 24 21 20 26 28 29 27 28 34 32 30 29 28 28 24 24 25 27 28 27 26 29 29 29 28 27 28 27 26 25 24 25 26 27 29 28
20 21 23 22 23 26 26 26 27 28 30 30 31 31 32 29 29 29 29 30 29 29 28 27 30 29 28 27 29 31 28 27 26 26 27 27 30 27
23 22 23 23 24 24 25 26 28 28 30 32 31 32 30 31 33 33 33 31 33 30 28 26 27 29 29 28 29 31 31 32 29 28 28 30 30 30
25 24 24 23 23 23 26 28 29 30 32 36 39 37 35 32 33 33 34 36 34 32 28 26 26 25 25 25 27 29 29 32 32 31 32 31 31 30
24 24 25 25 26 25 25 26 28 31 34 36 37 37 36 35 34 37 36 33 34 32 28 24 23 25 23 22 24 27 32 34 35 33 32 31 31 31
23 24 25 26 26 26 27 28 30 32 34 36 38 38 38 37 37 39 42 38 35 30 29 27 24 21 23 23 27 28 27 31 30 31 32 33 34 35
26 27 28 29 30 30 31 31 31 33 34 35 37 39 40 39 37 37 35 34 35 29 28 28 24 24 26 28 27 26 28 27 28 31 32 35 36 36
27 28 29 30 30 31 32 34 35 37 38 39 39 40 41 38 35 34 33 34 33 29 27 29 27 27 28 26 25 26 26 24 27 31 35 36 38 36
30 31 31 31 30 30 31 32 32 35 36 35 34 35 34 33 30 30 29 27 26 27 27 30 27 26 25 23 21 24 25 27 32 36 38 37 36 35
36 37 37 36 34 29 30 31 30 29 27 24 23 24 25 25 24 24 26 28 29 29 25 25 26 25 24 23 23 24 28 31 33 37 36 35 36 37
34 35 35 35 33 30 30 30 30 27 24 23 22 22 22 23 22 22 24 25 26 27 25 25 26 27 31 26 24 27 32 32 33 36 37 37 35 35
32 31 29 27 27 26 26 27 25 20 20 18 20 20 20 21 20 21 23 22 23 25 24 24 28 29 30 33 32 34 37 37 38 38 37 35 34 33
26 24 22 20 19 18 19 16 16 16 17 20 17 17 20 20 20 21 22 24 24 25 26 27 30 32 35 38 40 36 39 39 39 40 37 36 35 34
17 16 17 17 15 15 15 17 15 17 17 18 20 18 20 20 22 24 24 25 27 27 28 28 31 34 36 39 42 41 42 39 37 37 35 36 36 35
10 15 17 15 17 19 17 17 19 18 18 20 22 22 21 23 25 27 28 30 31 33 32 33 33 35 38 38 40 42 39 40 39 39 39 38 36 34
11 12 15 17 17 18 19 19 20 22 22 23 23 25 26 26 28 29 31 32 35 37 38 36 35 36 37 39 41 40 41 41 40 40 39 39 36 33
15 17 16 18 19 18 20 22 23 23 23 24 25 27 29 30 31 33 34 36 38 38 39 39 39 40 40 38 37 41 41 40 40 40 39 41 41 34
19 17 19 19 21 22 21 22 23 24 25 27 28 30 31 32 34 35 37 38 39 40 40 40 41 43 47 48 39 36 44 43 41 40 39 38 41 35
21 22 21 22 23 23 24 25 26 27 28 29 30 32 33 34 35 37 37 39 40 40 40 39 39 40 45 47 48 43 37 41 41 42 41 37 34 33
24 24 24 25 25 26 25 26 27 29 29 30 31 33 34 34 36 36 38 39 39 39 41 41 39 40 40 41 45 44 38 37 38 40 39 36 33 31
24 24 24 24 25 25 27 27 29 30 30 31 32 33 34 35 36 37 37 39 39 39 40 39 38 38 40 41 44 44 43 39 37 35 33 30 27 25
25 24 24 25 26 28 29 29 29 29 30 31 32 33 35 35 35 35 36 37 38 39 39 39 39 38 39 39 40 41 40 39 37 35 31 30 34 35
Wind_Direction
248 265 267 274 279 280 277 277 283 290 290 290 287 285 287 293 289 291 294 292 288 283 273 266 264 266 261 264 271 274 281 285 290 295 301 304 306 308
230 223 223 235 255 274 277 279 280 283 289 292 288 288 290 292 288 286 290 292 290 290 277 267 263 262 265 265 271 274 278 283 287 292 299 303 305 307
234 239 241 250 265 271 273 274 276 278 280 288 289 289 289 287 291 291 292 293 295 288 285 274 272 265 272 273 277 279 282 286 290 291 297 302 303 306
235 244 243 261 260 264 269 269 274 278 281 285 289 291 287 288 289 292 294 295 296 295 285 277 274 274 270 276 276 281 281 287 291 293 297 301 303 306
233 242 243 256 255 263 266 272 275 278 282 286 290 293 293 292 292 295 295 297 297 295 288 277 275 274 275 271 273 280 285 288 290 291 294 299 302 306
240 244 248 255 256 263 266 269 275 279 283 285 287 290 291 293 293 296 301 298 297 298 294 286 279 278 281 282 285 284 288 290 291 292 295 301 304 307
247 250 255 260 261 262 270 273 278 280 282 284 286 289 289 292 292 294 296 300 301 300 300 299 292 286 285 296 296 299 296 292 292 294 296 300 304 307
256 263 267 267 264 265 266 267 275 278 277 280 285 286 288 288 291 293 296 299 298 306 301 301 299 290 295 297 297 296 296 294 294 297 299 302 305 308
262 270 274 276 274 277 277 279 286 285 286 285 285 289 293 295 295 296 296 297 296 303 304 299 303 294 297 299 302 299 299 300 299 300 301 304 306 309
271 273 273 277 278 279 284 286 289 295 294 293 292 296 297 302 298 300 299 303 308 309 308 299 304 303 302 303 301 301 303 304 304 302 303 305 308 310
281 284 284 282 283 281 281 285 290 294 305 307 307 309 312 313 309 307 303 302 300 307 312 307 307 306 306 302 301 301 305 307 307 306 307 309 310 311
285 288 291 288 288 284 279 279 282 286 292 301 307 315 319 329 320 322 309 306 301 305 314 308 310 311 308 310 307 309 308 310 312 311 310 310 311 313
284 289 293 296 295 294 295 293 284 286 296 301 311 318 320 329 327 329 324 316 310 310 318 314 310 309 307 307 308 308 309 311 311 311 311 311 311 310
289 293 297 301 305 304 316 292 307 304 306 314 317 325 323 330 330 328 328 322 320 317 317 317 311 309 307 306 306 308 309 311 310 309 310 310 309 309
305 313 318 323 320 325 329 323 330 326 327 319 323 330 330 329 327 324 326 322 319 319 319 317 313 310 308 306 306 308 311 313 313 312 313 312 311 310
319 331 329 332 334 330 339 336 335 336 335 325 325 333 334 331 328 325 320 320 318 316 320 318 316 313 310 309 308 309 311 310 312 312 312 311 310 309
348 341 338 340 339 338 340 340 335 337 335 333 330 331 328 328 325 325 323 320 317 316 316 318 319 317 314 311 309 309 310 310 311 312 312 311 311 312
341 333 332 337 332 339 328 335 340 338 337 333 330 327 326 326 323 323 322 320 319 318 318 319 319 318 316 315 316 313 313 313 313 312 312 310 308 310
348 340 339 333 327 330 334 337 335 334 333 329 327 326 326 325 324 323 322 321 319 319 319 319 318 316 313 311 316 319 314 313 312 311 311 310 307 309
344 342 341 335 333 331 331 330 328 328 329 328 327 327 326 325 324 324 324 323 322 321 321 322 321 320 316 314 313 315 317 314 313 312 312 312 310 309
338 338 337 334 332 331 332 333 331 329 330 330 330 329 329 328 326 326 325 325 324 322 321 321 323 323 321 319 315 315 318 318 314 311 311 309 307 308
341 341 340 337 336 334 334 333 331 330 330 331 331 331 330 330 328 327 327 325 325 324 323 326 328 328 325 322 319 319 319 319 318 314 310 305 303 299
340 340 340 338 336 335 334 333 332 332 333 332 331 331 331 330 330 330 329 327 326 327 327 327 328 329 328 326 324 323 323 322 322 319 316 308 289 275